Probability
0 0 0 0 0 0 0 0 0 0 0 0 0 0 0 0 0 0 0 0 0 0 0 0 0 0 0 0 0 0 0 0 0 0 0 0 0 0
0 0 0 0 0 0 0 0 0 0 0 0 0 0 0 0 0 0 0 0 0 0 0 0 0 0 0 0 0 0 0 0 0 0 0 0 0 0
0 0 0 0 0 0 0 0 0 0 0 0 0 0 0 0 0 0 0 0 0 0 0 0 0 0 0 0 0 0 0 0 0 0 0 0 0 0
0 0 0 0 0 0 0 0 0 0 0 0 0 0 0 0 0 0 0 0 0 0 0 0 0 0 0 0 0 0 0 0 0 0 0 0 0 0
0 0 0 0 0 0 0 0 0 0 0 0 0 0 0 0 0 0 0 0 0 0 0 0 0 0 0 0 0 0 0 0 0 0 0 0 0 0
0 0 0 0 0 0 0 0 0 0 0 0 0 0 0 0 0 0 0 0 0 0 0 0 0 0 0 0 0 0 0 0 0 0 0 0 0 0
0 0 0 0 0 0 0 0 0 0 0 0 0 0 0 0 0 0 0 0 0 0 0 0 0 0 0 0 0 0 0 0 0 0 0 0 0 0
0 0 0 0 0 0 0 0 0 0 0 0 0 0 0 0 0 0 0 0 0 0 0 0 0 0 0 0 0 0 0 0 0 0 0 0 0 0
0 0 0 0 0 0 0 0 0 0 0 0 0 0 0 0 0 0 0 0 0 0 0 0 0 0 0 0 0 0 0 0 0 0 0 0 0 0
0 0 0 0 0 0 0 0 0 0 0 0 0 0 0 0 0 0 0 0 0 0 0 0 0 0 0 0 0 0 0 0 0 0 0 0 0 0
0 0 0 0 0 0 0 0 0 0 0 0 0 0 0 0 0 0 0 0 0 0 0 0 0 0 0 0 0 0 0 0 0 0 0 0 0 0
0 0 0 0 0 0 0 0 0 0 0 0 0 0 0 0 0 0 0 0 0 0 0 0 0 0 0 0 0 0 0 0 0 0 0 0 0 0
0 0 0 0 0 0 0 0 0 0 0 0 0 0 0 0 0 0 0 0 0 0 0 0 0 0 0 0 0 0 0 0 0 0 0 0 0 0
0 0 0 0 0 0 0 0 0 0 0 0 0 0 0 0 0 0 0 0 0 0 0 0 0 0 0 0 0 0 0 0 0 0 0 0 0 0
0 0 0 0 0 0 0 0 0 0 0 0 0 0 0 0 0 0 0 0 0 0 0 0 0 0 0 0 0 0 0 0 0 0 0 0 0 0
0 0 0 0 0 0 0 0 0 0 0 0 0 0 0 0 0 0 0 0 0 0 0 0 0 0 0 0 0 0 0 0 0 0 0 0 0 0
0 0 0 0 0 0 0 0 0 0 0 0 0 0 0 0 0 0 0 0 0 0 0 0 0 0 0 0 0 0 0 0 0 0 0 0 0 0
0 0 0 0 0 0 0 0 0 0 0 0 0 0 0 0 0 0 0 0 0 0 0 0 0 0 0 0 0 0 0 0 0 0 0 0 0 0
0 0 0 0 0 0 0 0 0 0 0 0 0 0 0 0 0 0 0 0 0 0 0 0 0 0 0 0 0 0 0 0 0 0 0 0 0 0
0 0 0 0 0 0 0 0 0 0 0 0 0 0 0 0 0 0 0 0 0 0 0 0 0 0 0 0 0 0 0 0 0 0 0 0 0 0
0 0 0 0 0 0 0 0 0 0 0 0 0 0 0 0 0 0 0 0 0 0 0 0 0 0 0 0 0 0 0 0 0 0 0 0 0 0
0 0 0 0 0 0 0 0 0 0 0 0 0 0 0 0 0 0 0 0 0 0 0 0 0 0 0 0 0 0 0 0 0 0 0 0 0 0
0 0 0 0 0 0 0 0 0 0 0 0 0 0 0 0 0 0 0 0 0 0 0 0 0 0 0 0 0 0 0 0 0 0 0 0 0 0
Wind_Speed
6 6 6 6 6 6 6 7 8 9 9 8 6 7 7 8 9 10 11 13 15 16 16 16 17 17 18 18 17 18 17 17 16 18 19 20 21 20
5 7 7 6 6 6 7 7 8 9 10 8 8 8 9 8 11 12 12 15 15 16 16 16 16 17 17 17 17 17 17 16 17 17 18 19 19 19
6 7 8 8 7 7 7 7 8 8 11 10 8 9 11 11 10 10 11 11 10 14 16 16 16 16 16 16 16 16 16 16 16 17 17 17 15 15
7 7 7 6 8 7 7 8 8 8 10 13 10 9 11 11 11 12 10 9 10 13 15 16 16 16 16 15 15 15 15 15 14 15 15 15 15 16
7 7 7 8 8 7 8 8 7 7 8 10 10 9 8 8 10 10 11 9 10 10 13 14 15 15 15 15 14 14 14 14 14 14 14 14 14 15
7 7 8 8 8 9 8 8 8 8 8 8 9 8 8 8 8 8 9 8 9 9 10 10 12 13 14 14 14 13 13 13 13 13 13 13 13 14
7 8 8 9 10 9 8 8 9 8 7 8 8 8 8 7 7 7 9 9 9 8 7 8 8 8 8 10 11 11 12 12 12 12 12 11 11 12
8 8 8 9 10 12 13 13 12 10 9 8 8 9 10 9 8 8 8 9 9 6 7 9 8 8 7 7 8 10 11 12 12 11 10 10 10 11
8 8 7 7 9 9 10 13 12 13 13 11 11 11 11 10 10 10 10 10 10 9 8 9 7 8 7 7 10 10 10 10 10 10 10 10 10 10
8 8 8 9 8 9 9 10 10 10 11 10 10 11 11 10 10 10 11 11 10 8 8 8 7 7 6 6 8 9 9 9 10 10 10 10 10 10
7 8 8 9 10 11 10 10 10 9 10 12 14 14 15 15 12 8 8 7 8 7 5 6 6 6 6 6 6 7 8 9 9 9 9 9 9 8
6 7 8 10 11 11 9 9 10 10 9 9 10 11 10 10 12 9 7 7 7 6 4 5 5 5 5 4 5 5 5 6 7 8 8 8 7 5
6 6 6 10 12 12 11 9 10 11 9 9 8 8 7 7 7 7 6 6 7 7 5 5 5 5 5 5 5 5 5 4 4 4 4 5 5 5
6 6 7 11 12 12 10 10 12 11 7 7 7 7 6 6 6 6 7 7 7 8 8 7 5 5 5 5 5 4 4 4 4 3 3 3 3 4
6 9 11 12 11 9 9 11 9 6 5 6 6 7 6 6 6 6 6 6 6 6 6 6 6 5 5 5 4 4 4 4 3 3 3 3 3 2
6 8 10 10 8 8 8 6 5 5 5 6 6 6 5 5 5 5 5 4 5 5 4 5 5 5 4 4 3 4 3 2 3 3 3 3 3 3
7 5 5 5 5 5 4 4 4 4 5 5 5 5 5 5 5 4 4 4 4 5 5 4 3 2 3 3 3 2 2 2 2 3 2 3 3 3
7 5 5 5 5 5 5 5 4 5 5 5 5 5 5 5 5 4 4 4 4 4 4 3 2 2 2 2 3 2 2 2 3 3 2 2 3 3
4 4 5 5 5 5 5 5 5 5 4 4 4 5 5 5 5 4 4 4 4 4 4 4 3 2 2 3 3 4 3 2 2 3 3 3 3 4
3 4 5 5 5 5 5 5 5 4 4 4 4 4 4 4 4 4 4 4 4 4 4 3 3 2 2 1 2 4 5 3 2 2 2 3 3 4
4 4 5 5 5 5 5 4 4 4 4 4 4 5 4 4 4 4 4 4 4 3 3 3 3 3 1 0 1 2 3 5 4 3 2 2 3 3
5 5 5 5 5 5 5 4 4 4 4 4 4 4 4 4 4 4 4 3 3 3 3 3 3 2 1 1 1 1 3 4 5 6 4 3 2 2
5 5 5 5 5 5 4 4 5 4 4 4 4 4 4 3 3 3 3 3 2 2 2 2 2 2 2 1 1 2 3 4 3 4 4 6 5 4
Wind_Direction
261 262 262 260 258 260 261 264 271 280 279 279 280 278 285 285 289 286 285 287 285 282 281 281 280 281 281 280 278 275 273 272 270 269 264 260 256 253
262 262 263 261 257 255 255 258 259 266 274 280 282 286 286 284 288 287 286 289 281 280 280 281 280 279 279 277 277 276 273 271 268 266 264 263 258 252
267 265 266 267 265 260 257 257 257 259 270 279 282 287 286 285 287 286 285 284 281 279 281 281 280 278 277 275 274 275 274 271 267 265 262 260 256 254
274 272 273 274 274 271 265 263 262 261 267 277 284 287 287 287 289 288 287 285 284 285 283 281 279 278 276 273 273 274 272 271 270 267 260 255 254 253
276 274 275 276 275 277 275 270 269 270 268 274 281 286 290 288 290 289 288 287 288 287 285 281 279 277 275 273 272 272 271 269 268 265 261 256 254 254
277 274 274 274 275 279 279 277 274 273 272 274 279 284 287 291 291 292 293 293 292 292 287 286 284 278 273 271 270 270 270 270 268 266 261 258 254 253
279 275 274 275 274 276 278 283 279 273 276 277 280 285 287 292 290 293 290 293 292 286 291 292 289 282 277 270 267 269 273 274 271 268 263 257 255 254
279 279 278 274 275 275 275 278 276 273 276 276 278 278 282 286 289 289 290 292 292 292 295 293 289 285 283 278 277 275 273 273 272 269 263 259 255 253
281 282 282 281 281 279 279 277 273 269 266 270 273 275 281 284 287 286 283 284 285 291 292 289 291 288 290 287 287 279 276 275 271 267 263 258 254 255
280 280 280 281 281 285 283 280 277 273 269 267 270 275 278 282 281 280 281 283 285 283 285 286 291 292 297 291 287 283 279 276 272 270 265 258 257 256
285 280 281 281 285 286 283 281 281 281 276 274 276 279 282 281 280 280 281 282 287 289 288 280 289 300 298 293 297 292 283 276 274 271 269 263 260 257
291 285 280 284 291 291 284 283 284 288 292 288 283 282 280 279 278 270 269 274 286 288 288 288 292 304 298 297 308 305 293 282 279 274 270 264 256 253
293 293 292 298 296 293 288 283 286 292 287 285 284 284 283 281 281 279 273 267 271 273 281 292 290 291 282 295 306 305 301 303 298 287 273 265 258 253
295 296 300 304 303 299 292 291 294 294 286 285 284 285 288 291 292 290 285 279 274 276 282 282 277 275 279 286 293 302 309 311 309 307 306 299 280 259
297 298 302 303 302 297 295 293 291 284 283 284 285 289 293 291 293 293 294 293 291 288 284 279 271 272 271 272 280 290 305 314 316 320 321 317 307 293
301 298 296 295 294 293 296 294 286 283 283 282 287 293 297 295 292 296 299 305 303 304 305 301 287 279 280 282 279 290 298 297 311 319 323 322 314 306
307 298 296 299 300 301 300 300 296 295 292 289 292 297 299 299 299 301 298 300 295 299 312 323 333 333 323 301 288 291 303 316 318 316 323 328 322 320
308 296 300 301 301 302 304 304 301 299 299 297 293 292 296 299 302 304 304 300 298 301 304 309 316 323 329 356 343 300 320 328 333 330 325 324 324 331
310 306 307 306 303 302 301 299 299 300 299 296 295 296 297 298 299 302 303 303 304 304 306 308 305 302 318 333 347 349 330 330 337 342 344 337 322 323
309 306 306 307 307 304 301 300 300 301 300 299 299 298 297 299 301 302 301 305 307 310 316 321 320 320 310 306 316 330 339 330 334 339 339 341 334 324
307 305 304 304 304 304 300 298 297 296 300 300 300 302 302 302 303 305 305 312 313 316 318 323 328 333 325 21 42 353 354 1 354 335 328 330 333 335
302 303 303 302 303 303 303 301 300 301 303 302 304 306 306 305 305 306 308 311 315 315 317 321 330 341 356 64 56 11 359 359 10 12 3 344 324 320
304 302 299 299 299 301 301 300 302 304 307 307 308 308 309 309 308 306 310 309 311 315 323 332 354 12 23 42 43 21 13 3 3 9 12 13 8 342